Home   Weather   Aachen   Past weeks

Flag for Germany Past Weather in Aachen, North Rhine-Westphalia, Germany — Yesterday and Last 2 Weeks

Now
64 °F

Sprinkles. Broken clouds.


Feels Like: 64 °F
Forecast: 57 / 67 °F
Wind: 9 mph from Southwest

Location: Geilenkirchen Airport

Current Time: Jun 28, 2017 at 3:55:52 pm

Latest Report: Jun 28, 2017 at 2:50 pm


Visibility: 5 mi

Pressure: 29.45 "Hg

Humidity: 94%

Dew Point: 63 °F

Location of AachenLocation

Past Weather in Aachen — Graph

°F

Aachen Temperature Yesterday

Maximum temperature yesterday: 72 °F (at 5:50 pm)
Minimum temperature yesterday: 57 °F (at 1:50 am)
Average temperature yesterday: 64 °F

High & Low Weather Summary for the Past Weeks

 TemperatureHumidityPressure
High95 °F (Jun 22, 2:50 pm)100% (Jun 14, 5:50 am)30.24 "Hg (Jun 14, 5:50 am)
Low48 °F (Jun 14, 5:50 am)31% (Jun 19, 5:50 pm)29.45 "Hg (Jun 28, 8:50 am)
Average71 °F63%29.97 "Hg
* Reported Jun 13 2:50 pm — Jun 28 2:29 pm, Aachen. Weather by CustomWeather, © 2017

Note: Actual official high and low records may vary slightly from our data, if they occured in-between our weather recording intervals... More about our weather records

Advertising

Aachen Weather History for the Previous 24 Hours

Scroll right to see more
 ConditionsComfort  
Time TempWeatherWind HumidityBarometerVisibility
2:29 pm
Wed, Jun 28
64 °FRain showers. Broken clouds.14 mph94%29.45 "Hg3 mi
1:50 pm70 °FSprinkles. Broken clouds.15 mph73%29.45 "Hg5 mi
12:50 pm70 °FBroken clouds.12 mph78%29.45 "HgN/A
11:50 am70 °FLight rain. Broken clouds.9 mph78%29.45 "HgN/A
10:50 am70 °FBroken clouds.7 mph78%29.45 "HgN/A
9:50 am70 °FPartly sunny.6 mph78%29.45 "HgN/A
8:50 am68 °FPartly sunny.5 mph83%29.45 "HgN/A
7:50 am66 °FLight rain. Partly sunny.3 mph88%29.47 "HgN/A
6:50 am66 °FLight rain. Partly sunny.6 mph88%29.47 "HgN/A
5:50 am66 °FLight rain. Broken clouds.3 mph88%29.47 "HgN/A
4:50 am63 °FClear.1 mph94%29.47 "Hg10 mi
3:50 am66 °FClear.2 mph88%29.50 "Hg10 mi
2:50 am66 °FClear.6 mph88%29.50 "Hg10 mi
1:50 am66 °FClear.9 mph88%29.53 "Hg10 mi
12:50 am68 °FClear.8 mph83%29.56 "Hg10 mi
11:50 pm
Tue, Jun 27
68 °FClear.7 mph83%29.59 "Hg10 mi
10:50 pm68 °FClear.8 mph78%29.59 "Hg10 mi
9:50 pm68 °FLight rain. Partly sunny.9 mph83%29.62 "HgN/A
8:50 pm70 °FSunny.7 mph78%29.62 "Hg10 mi
7:50 pm70 °FBroken clouds.8 mph78%29.65 "HgN/A
6:50 pm70 °FBroken clouds.12 mph78%29.65 "HgN/A
5:50 pm72 °FBroken clouds.13 mph73%29.68 "HgN/A
4:50 pm70 °FSunny.14 mph73%29.71 "Hg10 mi
3:50 pm66 °FPartly sunny.8 mph83%29.74 "HgN/A
Weather by CustomWeather, © 2017

See weather overviewHow to use our weather pages